Location: Unspecified
(0.0000°N, 0.0000°E)
Time: 14:55:25
(UTC+02:00)

ATLAS V CENTAUR R/B - Visible Passes

Search period start: 25 July 2014 00:00
Search period end: 04 August 2014 00:00
Orbit: 223 x 30627 km, 18.0° (Epoch: 24 July)

Date Brightness Start Highest point End Pass type
(mag) Time Alt. Az. Time Alt. Az. Time Alt. Az.
25 Jul 7.3 02:42:58 22° NE 02:42:58 22° NE 02:57:03 10° ENE visible
25 Jul 11.1 06:38:37 10° E 08:45:05 18° ESE 09:57:01 10° ESE visible
26 Jul 7.1 05:24:40 19° NW 11:21:08 63° ESE 13:30:07 10° ESE visible
29 Jul 6.8 04:34:00 33° NNW 10:32:30 50° ESE 12:31:29 10° ESE visible
29 Jul 4.1 21:55:42 10° WSW 21:59:30 33° WSW 21:59:30 33° WSW visible
30 Jul 7.9 07:18:59 10° WNW 10:37:32 85° SSE 15:30:42 10° ESE visible
01 Aug 6.8 03:40:35 38° NNE 03:42:13 38° NNE 11:26:13 10° ESE visible
01 Aug 3.4 20:53:14 10° WSW 21:03:38 56° S 21:05:16 25° E visible
02 Aug 7.6 06:20:51 10° WNW 11:19:06 77° SSE 14:31:19 10° ESE visible
